www.pogodaiklimat.ru

Погода и климат >> Архив погоды >> Вьетнам >> Ханой


АРХИВ ПОГОДЫ в Ханое

Время (UTC), дата Ветер
(напр.,м/с)
 
Видим.   Явления Облачность Т
(С)
Тd
(С)
f
(%)
Тe
(С)
Тes
(С)
Комфортность P
(гПа)
Po
(гПа)
Тmin
(С)
Tmax
(С)
R
(мм)
R24
(мм)
S
(см)
18 13.09 штиль 0 20 км 1/1 1500 м
[Sc]
+27.4 +25.1 87 +39 +39 очень
душно
1008.2 1004.5
00 14.09 СЗ 1 20 км ясно +26.0 +25.0 94 +37 +39 очень
душно
1008.9 1005.2 +25.8
06 14.09 СЗ 2 20 км 3/3 300 м
[Cu hum]
+33.7 +23.3 55 +44 +57 опасность
перегрева
1007.9 1004.3
12 14.09 штиль 0 20 км ясно +31.4 +24.5 67 +44 +44 опасность
перегрева
1006.5 1002.9 +35.1
18 14.09 штиль 0 20 км 1/1 300 м
[Cu hum]
+27.3 +25.0 87 +39 +39 очень
душно
1008.4 1004.7
00 15.09 СЗ 2 16 км ясно +25.9 +24.7 93 +37 +38 очень
душно
1009.2 1005.5 +25.8
06 15.09 штиль 0 20 км 4/4 600 м
[Cu med, cong]
+33.4 +24.1 58 +45 +60 опасность
перегрева
1006.9 1003.3
12 15.09 В 2 20 км ясно +30.8 +23.8 66 +42 +42 опасность
перегрева
1005.1 1001.5 +34.2
18 15.09 штиль 0 20 км ясно +27.4 +24.8 86 +39 +39 очень
душно
1007.8 1004.1
00 16.09 СЗ 2 16 км 8/8 300 м
[Cu Sc]
+26.6 +25.1 91 +38 +38 очень
душно
1008.7 1005.0 +26.4
06 16.09 З 1 20 км 4/4 300 м
[Cu med, cong]
+33.3 +25.0 62 +47 +60 опасность
перегрева
1006.1 1002.5
12 16.09 штиль 0 20 км 1/1 300 м
[Cu hum]
+30.8 +24.3 68 +43 +43 опасность
перегрева
1004.2 1000.6 +34.5
18 16.09 штиль 0 20 км ясно +27.7 +25.1 86 +40 +40 очень
душно
1007.9 1004.2
00 17.09 СЗ 1 4000 м дымка 1/1 1500 м
[Sc]
+26.0 +25.0 94 +37 +39 очень
душно
1009.5 1005.8 +25.8
06 17.09 штиль 0 20 км 5/5 300 м
[Cu med, cong]
+32.8 +23.9 60 +45 +57 опасность
перегрева
1008.2 1004.6
12 17.09 штиль 0 20 км ясно +30.0 +23.9 70 +41 +41 опасность
перегрева
1007.7 1004.1 +33.9
18 17.09 штиль 0 20 км 8/8 300 м
[Cu Sc]
+27.0 +24.7 87 +38 +38 очень
душно
1010.4 1006.7
00 18.09 штиль 0 20 км 3/3 300 м
[Cu hum]
+26.5 +24.3 88 +37 +38 очень
душно
1011.9 1008.2 +26.2
06 18.09 СВ 3 1000 м гроза, ливневой дождь 10/10 300 м
[Cb cap]
+27.1 +22.0 74 +35 +35 очень
душно
1011.6 1007.9 9
12 18.09 штиль 0 10 км {гроза, ливн. осадки} 8/8 300 м
[Cu Sc]
+26.8 +24.5 87 +38 +38 очень
душно
1011.3 1007.6 +32.7 14
18 18.09 штиль 0 10 км ясно +25.6 +24.0 91 +35 +35 очень
душно
1011.9 1008.2
00 19.09 штиль 0 16 км 9/9 300 м
[Cu Sc]
+25.6 +24.3 93 +36 +36 очень
душно
1013.5 1009.8 +25.4
06 19.09 СВ 2 16 км слаб. дождь 10/10 300 м
[Cu Sc]
+29.1 +24.3 75 +41 +41 опасность
перегрева
1012.5 1008.8 0.3
12 19.09 штиль 0 10 км {ливн. осадки} 3/3 1500 м
[Sc]
+27.5 +23.8 80 +38 +38 очень
душно
1010.6 1006.9 +29.3 9
18 19.09 СЗ 2 10 км 8/8 300 м
[Cu Sc]
+25.4 +24.3 94 +35 +35 очень
душно
1011.8 1008.1
00 20.09 штиль 0 2000 м дымка 10/10
[Cu Sc]
+24.3 +24.1 99 +33 +33 очень
душно
1012.0 1008.3 +24.0
06 20.09 С 2 20 км 4/4 600 м
[Cu Sc]
+31.8 +24.0 63 +43 +54 опасность
перегрева
1010.1 1006.5
12 20.09 С 2 20 км 1/1 300 м
[Cu med, cong]
+29.2 +23.2 70 +39 +39 очень
душно
1008.9 1005.3 +32.6

 

Местоположение метеостанции Ханой (Вьетнам): широта 21.03 долгота 105.80 высота над уровнем моря 6 м.

В архиве по умолчанию представлена погода в Ханое за последнюю неделю. Архивные данные за месяц целиком и за предыдущие месяцы, начиная с января 2011 года, Вы можете получить, выбрав интересующий диапазон дат из раскрывающегося списка и нажав кнопку "Ввод!".


*Определитесь, кто Вы:
робот инопланетянин человек

Внимание! Время в таблицах - всемирное. Для получения местного времени необходимо прибавить поправку, которая равна 7 ч.

Смотрите также архив погоды в соседних городах и на ближайших метеорологических станциях:

Погода в Хайфоне (Вьетнам) (7 км)
Погода в Намдине (Вьетнам) (76 км)
Погода в Пхульене (Вьетнам) (90 км)
Погода в Баккане (Вьетнам) (125 км)
Погода в Лангсоне (Вьетнам) (133 км)
Погода в Тханьхоа (Вьетнам) (142 км)
Погода во Вьенгсае (Лаос) (177 км)
Погода в Лончжоу (Гуанси-Чжуанский автономный район, Китай) (178 км)
Погода в Каобанге (Вьетнам) (188 км)
Погода в Самныа (Лаос) (192 км)

Пояснения к столбцам:

Ветер - указаны скорость ветра в м/с - средняя за 10 мин, порывы в срок и между сроками (в фигурных скобках) и направление, откуда дует ветер: С - северный, СВ - северо-восточный, В - восточный, ЮВ - юго-восточный, Ю - южный, ЮЗ - юго-западный, З - западный, СЗ - северо-западный.
Видимость - горизонтальная дальность видимости в метрах или километрах. При видимости от 1 до 10 км при отсутствии осадков обычно наблюдается дымка, при ухудшении видимости до 1 км и менее - туман. В сухую погоду видимость может ухудшаться дымом, пылью или мглою.
Явления - указаны атмосферные явления, наблюдавшиеся в срок или в последний час перед сроком; фигурными скобками обозначены явления, наблюдавшиеся между сроками (за 1-3 часа до срока); квадратными скобками обозначены град или гололедные отложения с указанием их диаметра в мм.
Облачность - указаны через наклонную черту общая и нижняя облачность в баллах и высота нижней границы облаков в метрах; квадратными скобками обозначены формы облаков: Ci - перистые, Cs - перисто-слоистые, Cc - перисто-кучевые, Ac - высококучевые, As - высокослоистые, Sc - слоисто-кучевые, Ns - слоисто-дождевые, Cu - кучевые, Cb - кучево-дождевые. Подробнее классификацию облаков см. в Атласе облаков (PDF).
T - Температура воздуха - температура, измеренная на высоте 2 м над землей.
Td - Температура точки росы - температура, при понижении до которой содержащийся в воздухе водяной пар достигнет насыщения.
f - Относительная влажность воздуха - влажноcть воздуха, измеренная на высоте 2 м над землей.
Te - Эффективная температура - температура, которую ощущает одетый по сезону человек в тени. Характеристика душности погоды. При расчете учитывается влияние влажности воздуха и скорости ветра на теплоощущения человека.
Tes - Эффективная температура на солнце - температура, которую ощущает человек, с поправкой на солнечный нагрев. Характеристика знойности погоды. Зависит от высоты солнца над горизонтом, облачности и скорости ветра. Ночью, в пасмурную погоду, а также при ветре 12 м/с и более поправка равна нулю.
P - Атмосферное давление - приведенное к уровню моря атмосферное давление.
Po - Атмосферное давление - измеренное на уровне метеостанции атмосферное давление.
Tmin - Минимальная температура - минимум температуры воздуха на высоте 2 м над землей.
Tmax - Максимальная температура - максимум температуры воздуха на высоте 2 м над землей.
R - Количество осадков - Количество выпавших осадков за период времени, мм. При наведении курсора мыши на число - период времени, за который выпало указанное количество осадков.
R24 - Количество осадков - Количество выпавших осадков за 24 часа, мм.
S - Снежный покров - Высота снежного покрова, см. При наведении курсора мыши на число - состояние снежного покрова и степень покрытия местности в баллах.